This is the latest recevied weather packets stored in our database for station/object N8QQQ. If no packets are shown the sender has not sent any weather packets the latest 10 day(s).
| Time | Temp. | Humidity | Pressure | Rain* | Wind** | Luminosity | Snow |
|---|---|---|---|---|---|---|---|
| 1777813906 | 6.67° C | 93% | 1005.1 hPa | 0 mm | - | 37 W/m² | - |
| 1777813603 | 7.22° C | 91% | 1005 hPa | 0 mm | - | 33 W/m² | - |
| 1777813301 | 6.67° C | 89% | 1004.9 hPa | 0 mm | - | 35 W/m² | - |
| 1777812998 | 6.11° C | 93% | 1004.9 hPa | 0 mm | - | 70 W/m² | - |
| 1777812696 | 5.56° C | 93% | 1005.1 hPa | 0 mm | - | 79 W/m² | - |
| 1777812392 | 5° C | 94% | 1005.2 hPa | 0 mm | - | 93 W/m² | - |
| 1777812091 | 4.44° C | 95% | 1005.3 hPa | 0 mm | - | 64 W/m² | - |
| 1777811788 | 3.89° C | 95% | 1005.3 hPa | 0 mm | - | 57 W/m² | - |
| 1777811485 | 3.89° C | 95% | 1005.3 hPa | 0 mm | - | 52 W/m² | - |
| 1777811181 | 3.33° C | 95% | 1005.3 hPa | 0 mm | - | 45 W/m² | - |
| 1777810879 | 2.78° C | 96% | 1005.2 hPa | 0 mm | - | 45 W/m² | - |
| 1777810575 | 2.78° C | 97% | 1005.3 hPa | 0 mm | - | 38 W/m² | - |
| 1777810273 | 2.78° C | 98% | 1005.2 hPa | 0 mm | - | 31 W/m² | - |
| 1777809968 | 2.22° C | 98% | 1005.3 hPa | 0 mm | - | 25 W/m² | - |
| 1777809666 | 2.22° C | 98% | 1005.4 hPa | 0 mm | - | 21 W/m² | - |
| 1777809363 | 2.22° C | 98% | 1005.3 hPa | 0 mm | - | 17 W/m² | - |
| 1777809061 | 2.22° C | 98% | 1005.5 hPa | 0 mm | - | 14 W/m² | - |
| 1777808758 | 2.22° C | 98% | 1005.3 hPa | 0 mm | - | 13 W/m² | - |
| 1777808455 | 1.67° C | 98% | 1005.3 hPa | 0 mm | - | 12 W/m² | - |
| 1777808153 | 1.67° C | 98% | 1005.3 hPa | 0 mm | - | 10 W/m² | - |
| 1777807850 | 1.67° C | 98% | 1005.4 hPa | 0 mm | - | 6 W/m² | - |
| 1777807549 | 1.67° C | 97% | 1005.4 hPa | 0 mm | - | 5 W/m² | - |
| 1777807245 | 1.67° C | 97% | 1005.5 hPa | 0 mm | - | 7 W/m² | - |
| 1777806942 | 1.67° C | 97% | 1005.5 hPa | 0 mm | - | 7 W/m² | - |
| 1777806638 | 1.67° C | 97% | 1005.5 hPa | 0 mm | - | 5 W/m² | - |
* Rain latest hour (hover to see other rain measurements)
** Current wind speed in m/s (hover to see current wind gust speed)